Find Starlink 34069

NORAD ID: 64920 Int'l Des: 2025-157 Owner: SPXS Country: US Constellation: starlink operational
LEOCIRCULAR

实时位置

正在加载3D地球...

关于 Starlink 34069

正在加载描述...

即将过境

Passes for default location (London). Set your location on the main map for personalized predictions.

高度历史

Loading altitude history...

两行轨道根数

1 64920U 25157S 26104.24122102 .00008133 00000-0 28639-3 0 9994
2 64920 53.1580 180.7658 0000979 84.6686 275.4426 15.30201658 41560
Epoch: Apr 14, 2026 • Age: 18 hours

当前状态

高度 491.7 km
速度 7.62 km/s
星下点 -46.57°S, 155.5°W
发射日期 Jul 26, 2025
运行时间 0.7 years
类型 internet

技术详情

分类 Payload
质量 575.00 kg
干质量 530.00 kg
总质量 575.00 kg
长度 0.30 m
直径 4.10 m
跨度 29.00 m
形状 Box + pan
制造商 SPXS
平台类型 Starlink V2MO
阶段状态 In Orbit
所有者/国家 SPXS/US

Most Searched